Temperature
22 22 21 22 25 25 25 27 30 31 32 32 31 30 28 28 27 26 25 24 23 23 22 22 21 21 20 20 20 20 20 20 19 19 19 19 19 19 19 19 19 19 19 19 19 19 19 19 19
22 21 22 25 27 25 24 27 29 32 33 32 31 30 28 27 27 26 25 23 22 22 22 22 21 21 20 20 20 20 20 19 19 19 19 19 19 19 19 19 19 19 19 18 18 18 18 18 19
21 23 25 28 29 27 27 29 32 33 33 32 31 29 28 26 26 25 24 23 22 21 21 22 21 21 20 20 20 20 19 19 19 19 19 19 19 19 19 19 19 19 18 18 18 18 18 18 18
22 24 27 29 30 30 31 32 33 33 33 32 30 28 25 25 25 25 24 24 22 21 21 21 21 21 20 20 20 19 19 19 19 19 19 19 19 19 19 19 19 19 18 18 18 18 18 18 18
23 27 29 29 30 31 32 33 33 33 32 31 30 26 25 25 25 25 25 24 22 21 21 22 21 21 20 20 20 19 19 19 19 19 19 19 19 19 19 19 19 19 18 18 18 18 18 18 18
26 29 29 30 31 31 32 31 33 32 31 30 28 26 24 24 25 25 25 24 23 21 21 22 21 21 20 20 20 19 19 19 19 19 19 19 19 19 19 19 19 19 18 18 18 18 18 18 18
27 29 29 31 32 32 32 32 31 30 30 29 28 25 24 24 24 25 25 24 23 22 21 21 21 20 20 20 20 19 19 19 19 19 19 19 19 19 19 19 19 18 18 18 18 18 18 18 18
28 29 29 31 32 32 31 30 29 28 27 27 27 26 24 23 24 24 24 24 23 22 21 20 20 20 20 20 20 19 19 19 19 19 19 19 19 19 18 18 18 18 18 18 18 18 18 18 18
28 29 29 31 32 31 30 29 28 28 27 26 26 26 24 23 23 24 24 23 22 21 21 21 20 20 19 19 19 19 19 19 19 19 18 18 18 18 18 18 18 18 18 18 18 18 18 18 18
29 29 30 32 33 32 30 29 28 28 28 25 23 23 23 23 23 24 24 23 22 21 21 21 20 20 20 19 19 19 19 19 18 18 18 18 18 18 18 18 18 18 18 18 18 18 18 18 18
30 30 31 32 32 32 31 29 28 28 25 22 21 22 23 23 24 24 23 23 22 21 21 20 20 20 20 19 19 19 18 18 18 18 18 18 18 18 18 18 18 18 18 18 18 18 18 18 18
31 31 31 32 31 31 31 29 27 25 21 21 21 22 23 24 24 24 23 22 21 21 20 20 20 19 19 19 19 19 18 18 18 18 18 18 18 18 18 17 17 17 17 17 17 17 17 17 17
31 31 31 31 30 30 29 28 26 22 21 22 22 22 23 24 23 23 22 21 21 20 20 19 19 19 19 19 19 18 18 18 18 18 17 17 17 17 17 17 17 17 17 17 17 17 17 17 17
30 30 30 29 29 29 30 28 25 21 21 22 22 23 23 23 23 22 21 21 20 20 19 19 19 19 19 19 19 18 18 18 17 17 17 17 17 17 17 17 17 16 16 16 16 16 16 16 17
29 29 28 27 27 27 28 27 24 22 22 22 22 22 22 22 22 21 21 20 20 19 19 19 19 18 18 18 18 18 18 18 17 17 16 16 16 16 16 16 16 16 16 16 16 16 16 16 16
28 26 24 25 25 26 27 23 21 21 22 23 23 22 22 21 21 21 20 20 19 19 19 18 18 18 18 18 18 18 18 17 17 16 16 16 15 15 15 15 15 15 15 15 16 16 16 16 16
26 24 23 23 25 26 25 20 19 21 22 23 22 22 21 21 20 20 19 19 19 18 18 18 18 18 18 18 18 17 17 17 16 16 16 15 15 14 15 14 14 15 15 15 15 15 15 15 15
27 26 25 23 25 26 24 21 20 21 23 23 23 22 21 20 20 19 19 19 18 18 18 18 18 18 18 18 17 17 17 16 16 16 15 15 14 14 14 14 14 14 14 14 14 14 14 14 15
29 28 26 25 26 26 24 22 22 22 23 23 23 22 21 20 20 19 19 19 18 18 18 18 18 18 18 17 17 17 17 16 16 16 15 15 14 13 13 13 13 13 13 14 14 13 14 14 14
29 27 26 26 27 27 25 23 22 23 23 23 23 22 21 20 20 19 19 19 18 18 18 18 18 18 18 17 17 17 16 16 16 16 15 14 14 13 13 13 13 13 13 13 13 13 13 13 14
28 28 27 27 27 27 25 22 22 22 23 23 23 22 21 21 20 20 19 19 19 18 19 18 18 18 18 17 17 16 16 16 16 16 15 14 14 13 13 12 12 12 12 12 13 13 13 13 13
28 29 29 28 26 23 24 22 21 21 23 24 23 23 22 21 21 20 20 19 19 19 19 19 18 18 17 17 16 16 16 16 16 15 15 14 14 13 13 12 12 12 12 12 12 12 12 12 12
30 30 28 26 24 22 23 23 23 23 23 24 24 23 23 22 21 21 20 20 20 20 19 19 18 18 17 17 16 16 16 16 15 15 15 14 14 13 13 12 12 12 12 12 12 12 12 12 12
30 29 25 23 21 20 23 24 23 24 25 25 25 24 23 23 22 22 21 21 21 20 20 19 19 18 17 17 16 16 15 15 15 15 14 14 13 13 13 13 12 12 11 11 11 11 11 11 11
29 27 23 21 20 21 25 26 26 27 27 27 26 25 24 23 23 22 22 22 21 21 20 20 19 18 17 16 16 15 15 15 14 14 14 13 13 13 13 13 12 12 11 11 11 11 11 11 11
30 29 27 25 25 25 27 27 27 28 28 27 26 26 25 24 24 23 23 22 22 21 21 20 19 18 17 16 16 15 15 15 14 14 14 13 13 13 13 12 12 11 11 11 11 11 11 11 11
30 30 30 29 28 26 27 28 27 28 28 28 27 26 26 25 25 24 23 23 22 21 21 20 19 18 17 17 16 16 15 15 14 14 14 13 13 12 12 12 12 11 11 11 11 11 11 11 11
31 30 30 29 27 26 25 26 27 27 27 28 28 27 26 26 25 25 24 23 22 22 21 20 19 18 17 17 16 16 15 15 14 13 13 13 13 12 12 12 12 11 11 11 11 11 11 11 11
29 29 29 29 28 26 24 25 29 28 28 28 28 27 27 27 26 25 24 24 23 22 21 20 19 18 17 16 16 16 15 14 14 13 13 12 12 12 12 12 11 11 11 11 11 11 11 10 10
29 29 29 28 27 28 27 27 30 30 29 29 29 28 27 27 27 26 25 24 23 22 21 20 19 18 17 17 16 15 15 14 14 13 13 12 12 12 12 11 11 11 11 11 11 10 10 10 10
Wind_Speed
13 14 11 8 6 4 10 8 5 7 10 12 14 16 18 16 12 12 15 23 25 21 20 18 17 16 14 13 13 12 12 12 11 11 11 10 10 9 9 8 7 7 7 7 7 7 7 7 7
13 14 11 7 8 4 4 6 0 7 9 10 14 19 19 16 15 15 18 21 23 21 19 18 17 16 14 13 13 13 13 12 11 11 10 10 9 8 8 7 6 5 5 5 5 5 5 5 5
14 17 9 8 12 7 7 5 5 7 7 9 13 15 12 11 13 13 17 21 22 20 20 19 17 16 14 13 12 12 12 12 11 10 10 9 8 7 6 5 5 4 4 4 4 3 3 4 4
8 11 8 11 17 9 8 1 3 5 6 10 15 13 9 7 12 17 18 22 22 20 20 19 17 15 14 13 12 11 11 10 10 9 8 7 6 5 5 4 3 3 2 2 2 2 2 2 2
11 9 13 16 18 8 10 5 1 5 4 8 16 13 11 10 18 18 17 20 20 20 20 19 17 15 13 12 10 10 9 9 8 7 6 5 5 4 3 2 2 1 1 1 2 2 2 3 3
9 10 15 17 15 6 7 8 3 6 7 9 16 16 9 11 16 16 17 17 19 21 19 18 17 15 13 11 10 9 8 7 6 5 5 4 3 3 3 3 2 2 2 2 2 3 3 4 4
13 13 18 22 17 9 7 4 2 1 6 6 11 13 11 13 13 14 16 16 19 20 18 17 16 14 12 11 10 9 8 7 6 4 4 3 3 4 5 5 4 4 4 4 4 4 5 5 6
13 13 20 21 18 8 3 3 3 5 5 5 7 10 15 15 12 14 15 16 16 16 15 15 15 15 13 12 11 10 8 7 6 5 5 4 6 7 8 7 7 6 5 5 5 6 6 7 8
15 14 17 19 13 5 1 1 3 4 7 8 9 15 21 20 15 15 15 15 14 13 11 12 12 11 12 13 12 12 10 8 7 6 6 6 6 4 6 5 5 6 7 7 7 7 8 9 11
11 14 19 15 10 4 2 0 4 4 6 13 18 18 21 18 16 15 15 14 13 11 10 9 8 6 7 8 10 7 7 7 5 4 2 3 2 4 3 4 5 6 7 8 9 10 9 10 10
12 16 18 15 11 8 4 5 6 5 7 11 14 13 15 17 15 14 14 13 13 10 9 9 8 7 7 6 6 5 5 5 3 5 3 4 4 4 3 1 2 5 7 7 6 8 8 7 6
11 14 14 13 11 11 9 7 2 9 13 13 11 9 12 14 14 13 14 13 13 11 10 9 11 9 9 8 5 4 3 3 3 6 8 7 3 3 3 2 3 3 3 3 3 3 6 6 6
10 11 12 12 10 9 7 5 4 13 17 16 14 11 10 11 12 13 13 14 13 11 11 11 11 8 6 5 3 3 3 3 5 7 10 8 4 3 4 3 3 5 3 2 2 2 3 4 5
9 10 11 10 11 9 7 4 4 10 14 15 14 12 10 11 13 13 13 13 12 11 11 10 9 8 5 3 2 1 3 4 7 8 8 8 7 6 5 4 2 3 3 3 2 3 3 3 3
8 9 8 9 11 10 8 2 6 7 11 13 13 11 11 11 11 12 11 12 12 11 10 9 9 8 4 3 1 2 4 7 5 5 8 9 9 8 7 4 3 3 5 3 3 3 4 4 4
9 6 6 9 12 13 9 1 7 3 4 10 11 11 11 10 10 10 11 11 12 11 9 6 9 9 6 4 3 5 6 5 4 5 8 9 8 8 7 4 4 6 6 4 3 2 3 3 4
7 1 4 8 12 11 3 3 1 9 5 8 10 11 11 9 9 8 10 11 11 10 9 7 8 7 6 5 3 4 3 2 2 5 8 7 6 8 8 5 4 6 4 3 5 5 5 5 5
7 3 6 6 8 6 2 5 7 11 10 9 10 10 10 10 10 9 9 11 10 8 8 8 7 6 5 3 2 1 1 1 1 5 7 5 5 7 8 5 6 6 4 4 4 5 4 4 5
5 3 1 4 7 4 2 6 7 8 6 7 10 10 10 10 11 10 10 11 10 8 8 7 7 6 3 2 0 0 1 1 1 3 7 4 4 5 5 4 5 5 5 6 6 5 6 5 5
6 6 4 4 5 3 2 5 7 8 7 6 9 10 11 10 11 11 10 10 10 9 8 7 7 6 4 3 1 1 1 3 1 2 4 3 3 4 5 5 5 5 5 6 4 4 4 6 6
6 6 7 6 3 1 1 1 2 1 4 6 8 10 11 12 12 12 11 11 11 10 10 9 8 7 6 4 3 2 1 3 1 1 2 4 3 2 3 3 4 5 6 5 6 5 5 5 6
5 6 6 6 3 2 3 1 4 6 7 7 8 10 11 12 12 12 12 12 11 11 11 9 8 7 6 5 3 3 3 3 2 1 2 2 1 3 2 1 2 4 5 6 6 6 6 6 6
7 6 9 11 7 5 5 2 4 8 9 9 10 10 11 13 13 13 13 12 11 11 11 10 9 7 6 5 4 3 4 3 3 3 3 2 4 4 4 3 1 2 4 4 5 6 6 5 5
7 5 9 10 6 3 9 5 5 7 9 11 11 11 12 13 13 13 13 11 9 9 9 10 10 8 7 6 5 4 3 2 3 4 4 4 4 2 2 2 2 2 4 4 5 5 7 5 6
7 5 2 1 0 6 12 3 6 8 9 10 13 13 13 13 13 13 12 11 10 9 9 9 11 9 7 6 5 4 3 3 5 5 5 3 3 3 2 2 1 3 4 4 5 5 6 6 6
8 8 6 6 2 4 5 5 9 10 9 9 12 13 13 13 13 13 13 11 10 10 9 8 9 9 8 6 5 4 2 3 3 1 3 4 4 4 2 1 3 4 5 6 5 5 7 6 5
7 9 9 7 7 3 1 8 11 10 10 9 10 13 13 13 13 13 12 11 10 9 8 8 9 8 7 6 6 5 5 4 4 4 4 5 3 4 4 3 4 5 5 5 6 6 7 7 6
8 9 8 7 6 3 4 2 7 10 10 10 10 11 12 12 13 13 12 11 10 9 8 8 9 7 6 5 5 5 6 6 6 5 5 5 5 5 5 6 6 6 6 6 6 6 7 7 6
7 7 6 6 7 5 1 0 7 9 10 10 11 12 12 12 12 12 11 10 10 10 10 9 8 7 6 6 5 3 3 4 4 5 6 6 6 6 6 6 7 7 7 7 7 7 8 8 8
9 9 7 5 6 7 4 4 5 4 8 8 9 11 10 9 9 10 11 10 9 9 11 10 9 9 8 7 6 6 6 5 6 6 6 5 6 6 6 6 6 7 8 7 7 8 8 8 8
Wind_Direction
196 214 222 238 242 245 296 302 12 68 71 63 62 74 74 62 81 97 108 108 112 116 121 116 111 111 109 109 113 119 124 125 123 121 120 119 117 115 111 107 101 94 90 85 82 77 75 72 71
209 220 229 244 243 230 272 275 232 86 83 90 85 83 81 73 86 103 109 115 117 122 127 118 113 110 109 110 112 114 118 121 123 122 122 121 121 120 117 114 109 101 97 96 91 85 84 82 79
236 238 249 251 251 235 223 223 139 110 115 106 90 76 73 87 98 110 121 123 119 118 116 118 116 112 111 110 112 113 115 116 118 119 121 123 124 124 123 122 119 115 111 109 106 101 98 98 94
234 236 244 258 270 280 263 237 115 117 113 122 106 87 81 76 112 120 131 123 118 120 121 122 120 117 115 115 115 116 117 118 120 121 124 126 128 129 130 132 131 130 127 127 132 137 130 131 133
241 255 249 262 271 283 292 300 226 145 121 109 103 104 98 95 113 127 134 122 126 123 123 127 125 124 123 122 121 121 122 123 125 128 132 135 139 143 151 156 158 163 174 180 185 180 167 182 189
243 254 264 268 271 255 270 280 256 128 115 108 108 112 103 120 125 137 130 126 124 122 123 128 129 130 130 130 129 129 131 133 136 141 147 154 162 176 195 205 213 220 235 244 238 231 216 209 213
257 274 278 281 278 263 245 289 52 34 110 105 117 117 130 132 134 133 124 120 120 122 128 138 139 139 141 142 144 145 146 149 153 161 175 192 211 220 224 223 225 229 234 241 246 247 242 230 223
257 277 282 281 280 282 278 341 342 92 85 98 133 129 140 139 143 129 125 115 113 119 129 141 146 148 155 156 160 159 161 164 172 185 200 218 235 233 230 227 223 226 232 237 244 249 247 240 231
260 265 270 277 290 294 27 30 335 89 131 96 77 116 132 142 143 136 130 121 114 115 124 133 137 148 158 157 160 166 170 176 186 196 210 231 253 260 223 217 213 229 234 238 241 246 248 244 237
247 259 267 284 315 322 68 359 258 218 119 92 86 99 127 140 144 144 137 131 126 120 114 102 112 122 129 135 142 156 157 159 175 137 181 246 297 302 305 165 200 231 239 242 242 244 246 243 242
251 262 281 297 313 310 285 248 252 239 91 88 100 124 138 141 144 140 133 132 126 116 104 102 91 73 75 87 98 86 89 99 87 76 22 14 346 330 340 56 209 235 247 248 248 241 245 251 260
261 275 285 295 303 302 296 286 36 61 91 97 119 150 148 146 139 133 129 123 115 112 103 96 82 67 56 55 57 70 74 81 75 73 41 25 352 345 358 343 319 283 266 252 267 255 255 260 262
264 275 286 289 290 285 273 261 100 93 117 135 155 162 151 144 131 116 111 112 116 113 103 94 91 85 75 60 33 65 64 65 78 69 57 23 4 7 359 335 316 296 291 284 315 296 283 273 267
314 318 309 312 312 287 264 234 117 120 140 139 147 151 153 137 123 116 115 118 118 113 108 106 107 106 105 109 91 73 96 91 75 67 57 31 15 17 350 321 315 312 343 23 330 302 286 274 263
320 308 318 317 305 299 277 252 67 114 142 140 143 142 127 115 115 117 120 123 119 115 115 123 123 117 119 115 110 80 66 67 67 77 73 45 23 7 342 313 312 4 345 331 278 287 279 266 270
312 324 322 298 292 286 289 17 48 299 160 138 135 129 120 116 119 120 122 118 119 123 130 145 128 124 119 97 49 62 52 50 50 63 73 48 13 6 339 323 0 2 332 312 306 284 314 337 331
297 272 247 270 267 265 251 111 255 258 212 155 145 138 133 131 124 121 124 120 122 128 130 119 114 121 114 105 81 95 99 76 42 73 73 42 4 12 351 333 357 340 323 326 332 14 3 337 325
282 212 201 231 267 255 124 139 192 235 217 171 151 142 143 147 143 141 135 129 130 133 131 127 126 118 124 125 121 133 132 158 134 99 91 58 12 25 351 322 10 349 329 345 356 344 325 304 288
333 344 31 247 269 282 136 149 182 220 213 163 142 140 146 153 150 147 146 142 142 144 143 145 144 137 144 143 182 37 42 342 21 110 105 74 35 14 317 349 345 329 343 346 333 338 323 310 295
340 346 321 279 262 273 141 124 166 208 203 163 147 147 152 153 149 149 156 153 157 159 158 158 156 162 176 164 163 210 256 280 266 84 126 119 64 357 338 30 337 355 336 314 327 328 315 313 322
328 300 273 268 261 329 38 136 157 187 202 166 157 154 156 162 161 160 169 168 171 171 174 177 175 175 181 184 212 252 225 259 261 74 111 88 48 331 342 342 346 346 326 340 345 333 333 323 317
299 295 303 300 293 324 304 262 220 206 215 182 178 165 165 167 168 169 175 178 181 181 182 179 172 176 176 190 232 268 279 294 328 3 74 75 292 261 275 312 340 336 320 322 329 15 339 326 317
319 340 3 7 0 342 287 230 205 191 199 189 182 172 169 169 174 175 181 186 189 187 183 175 168 172 178 195 220 250 283 321 2 17 9 339 270 234 220 203 220 310 298 323 344 327 322 315 313
320 352 23 23 13 325 252 225 165 177 182 176 172 172 172 175 177 176 183 183 188 187 182 169 165 169 176 196 220 226 262 311 320 317 302 290 281 261 194 190 139 293 303 333 322 310 302 303 311
289 295 328 332 227 245 241 207 125 138 153 160 164 171 177 178 181 179 184 184 188 193 185 174 162 165 178 195 207 214 224 257 259 254 267 277 296 307 59 45 27 297 302 295 283 286 284 287 290
275 288 292 310 281 210 217 127 123 128 134 148 158 165 174 179 183 184 187 188 189 193 185 175 157 161 176 193 192 194 211 254 271 306 346 323 305 309 346 300 264 263 268 278 288 293 287 282 282
292 303 311 306 309 333 43 114 120 132 142 154 160 164 176 185 186 187 188 187 186 185 174 165 148 159 179 192 178 186 206 235 284 318 285 271 281 294 316 320 296 281 271 267 272 272 279 283 280
277 302 315 320 328 354 31 32 142 153 158 166 173 176 183 187 189 189 184 183 175 171 155 146 145 161 179 195 201 213 193 207 219 241 272 294 294 286 282 279 284 283 278 270 261 266 269 271 268
264 273 296 315 327 332 14 117 147 160 166 175 182 184 187 193 193 186 177 169 165 159 150 151 156 166 182 203 208 233 228 240 240 237 243 251 259 270 274 272 271 272 271 269 263 261 267 269 267
299 281 275 285 316 314 335 86 98 136 159 175 183 179 183 187 190 176 164 156 161 167 164 165 170 180 188 194 195 202 215 229 244 254 253 256 260 263 270 272 272 273 274 272 273 274 276 273 271
Height
1514 1514 1515 1518 1515 1513 1512 1493 1480 1474 1473 1474 1476 1480 1488 1492 1499 1513 1515 1515 1518 1521 1526 1530 1533 1536 1538 1541 1543 1545 1547 1548 1550 1551 1552 1553 1554 1554 1555 1556 1557 1558 1558 1559 1559 1560 1561 1561 1562
1514 1515 1518 1514 1508 1516 1515 1491 1481 1473 1473 1475 1478 1484 1490 1498 1503 1510 1514 1518 1520 1523 1527 1531 1534 1537 1540 1542 1544 1546 1548 1550 1551 1552 1553 1554 1555 1555 1556 1557 1558 1559 1559 1560 1561 1561 1562 1562 1563
1515 1516 1516 1503 1496 1504 1501 1481 1472 1470 1473 1475 1480 1487 1494 1502 1507 1511 1516 1520 1522 1525 1528 1532 1535 1538 1541 1543 1546 1547 1549 1551 1552 1553 1554 1555 1556 1556 1557 1558 1559 1559 1560 1561 1561 1562 1563 1563 1564
1515 1516 1511 1498 1491 1482 1479 1471 1467 1469 1472 1475 1480 1492 1501 1505 1508 1512 1517 1521 1523 1527 1530 1534 1537 1539 1542 1544 1547 1548 1550 1551 1553 1554 1555 1555 1556 1557 1558 1558 1559 1560 1560 1561 1562 1563 1563 1564 1565
1517 1512 1503 1496 1485 1478 1473 1468 1468 1469 1473 1475 1480 1495 1504 1508 1509 1513 1518 1522 1525 1528 1531 1535 1538 1541 1543 1545 1547 1549 1551 1552 1553 1554 1555 1556 1557 1557 1558 1559 1559 1560 1560 1561 1562 1563 1563 1564 1565
1514 1504 1501 1494 1481 1474 1475 1470 1467 1470 1474 1479 1485 1495 1506 1511 1512 1515 1519 1523 1527 1529 1532 1536 1539 1542 1544 1546 1548 1550 1551 1552 1554 1555 1556 1556 1557 1557 1558 1559 1559 1560 1560 1561 1562 1562 1563 1564 1565
1512 1503 1498 1487 1478 1475 1472 1471 1471 1476 1475 1480 1486 1495 1506 1511 1514 1517 1521 1524 1528 1530 1533 1536 1539 1542 1545 1547 1549 1550 1551 1553 1554 1555 1556 1556 1557 1557 1558 1558 1559 1559 1560 1560 1561 1562 1562 1563 1564
1508 1503 1497 1485 1476 1475 1472 1474 1476 1477 1480 1483 1486 1491 1502 1510 1514 1518 1522 1526 1529 1532 1535 1538 1541 1543 1545 1547 1549 1550 1551 1552 1553 1554 1555 1556 1557 1557 1557 1557 1558 1559 1559 1559 1560 1561 1561 1562 1563
1506 1505 1499 1484 1476 1475 1474 1477 1479 1480 1484 1486 1487 1489 1498 1507 1513 1518 1523 1527 1531 1534 1537 1540 1543 1544 1546 1547 1549 1550 1551 1552 1553 1554 1555 1555 1556 1557 1557 1556 1557 1557 1558 1558 1559 1559 1560 1560 1561
1502 1501 1491 1478 1473 1475 1476 1480 1481 1481 1485 1490 1491 1497 1502 1509 1514 1518 1523 1528 1532 1535 1538 1541 1543 1545 1547 1548 1549 1550 1551 1552 1553 1553 1554 1555 1555 1556 1556 1555 1555 1556 1556 1556 1557 1557 1558 1558 1559
1497 1494 1485 1479 1477 1477 1477 1480 1481 1482 1490 1497 1498 1504 1506 1511 1516 1519 1523 1528 1532 1536 1539 1541 1543 1545 1547 1548 1550 1551 1551 1552 1553 1553 1554 1554 1554 1555 1555 1554 1554 1554 1554 1554 1554 1555 1555 1556 1557
1494 1490 1486 1483 1481 1480 1480 1482 1484 1488 1498 1499 1503 1507 1511 1513 1517 1520 1523 1528 1531 1536 1539 1541 1542 1544 1546 1548 1550 1551 1552 1552 1553 1553 1553 1552 1553 1553 1553 1552 1552 1552 1552 1552 1552 1553 1553 1554 1554
1491 1489 1487 1485 1484 1483 1483 1483 1487 1495 1498 1501 1506 1511 1511 1515 1517 1521 1523 1527 1531 1535 1538 1540 1541 1544 1546 1548 1549 1551 1551 1552 1552 1552 1551 1551 1551 1551 1550 1550 1550 1551 1551 1551 1550 1551 1551 1551 1551
1491 1489 1487 1486 1486 1484 1483 1486 1489 1499 1498 1501 1505 1509 1511 1515 1518 1521 1524 1527 1531 1534 1537 1539 1541 1543 1546 1547 1549 1551 1552 1552 1552 1551 1550 1550 1549 1548 1548 1549 1549 1549 1549 1548 1548 1549 1548 1548 1549
1492 1492 1492 1491 1490 1489 1487 1491 1495 1500 1498 1500 1505 1509 1512 1515 1519 1522 1525 1528 1531 1534 1537 1539 1541 1543 1545 1547 1549 1551 1552 1551 1551 1550 1549 1548 1548 1547 1546 1547 1547 1547 1547 1547 1547 1547 1547 1546 1546
1494 1500 1509 1499 1495 1492 1494 1507 1502 1501 1501 1501 1506 1510 1513 1517 1520 1523 1526 1529 1531 1534 1537 1540 1542 1543 1545 1547 1549 1550 1550 1550 1550 1550 1548 1547 1546 1545 1545 1545 1545 1545 1545 1545 1546 1545 1545 1544 1544
1501 1512 1515 1506 1495 1494 1497 1512 1506 1503 1503 1504 1506 1510 1515 1518 1521 1524 1526 1529 1531 1534 1537 1540 1542 1544 1545 1547 1549 1549 1550 1550 1550 1549 1547 1546 1545 1544 1543 1543 1543 1543 1543 1544 1544 1543 1542 1541 1541
1500 1503 1508 1507 1494 1491 1497 1509 1507 1506 1505 1505 1507 1511 1515 1519 1521 1524 1526 1529 1532 1534 1537 1539 1542 1543 1545 1547 1548 1549 1550 1549 1549 1548 1546 1545 1544 1543 1542 1542 1541 1541 1541 1541 1541 1540 1540 1540 1539
1487 1491 1499 1499 1490 1491 1497 1503 1504 1505 1505 1505 1507 1511 1515 1519 1521 1524 1527 1530 1532 1534 1537 1539 1541 1543 1545 1546 1548 1548 1549 1549 1549 1547 1545 1544 1543 1542 1541 1540 1540 1540 1539 1539 1539 1538 1538 1538 1538
1484 1492 1497 1493 1487 1488 1496 1501 1502 1503 1504 1505 1507 1510 1514 1518 1521 1524 1527 1530 1532 1533 1536 1538 1540 1542 1544 1545 1546 1547 1547 1547 1547 1546 1544 1543 1541 1541 1541 1539 1538 1538 1537 1538 1537 1537 1536 1536 1536
1487 1490 1491 1491 1486 1488 1496 1507 1504 1502 1503 1505 1507 1510 1513 1516 1519 1523 1526 1529 1531 1533 1536 1538 1540 1541 1543 1544 1545 1545 1545 1545 1546 1544 1543 1541 1540 1539 1539 1537 1536 1536 1535 1536 1535 1535 1534 1534 1534
1489 1481 1482 1485 1493 1505 1504 1518 1510 1503 1503 1503 1506 1508 1511 1515 1518 1522 1525 1528 1530 1532 1534 1536 1538 1540 1541 1542 1542 1543 1544 1544 1544 1543 1542 1540 1539 1538 1537 1536 1535 1534 1534 1534 1534 1533 1532 1532 1532
1480 1478 1485 1494 1503 1513 1507 1512 1508 1499 1502 1501 1503 1505 1509 1513 1516 1520 1523 1526 1529 1531 1533 1535 1536 1538 1539 1539 1540 1540 1541 1541 1541 1540 1539 1538 1537 1537 1536 1535 1534 1533 1532 1532 1531 1530 1530 1529 1530
1476 1482 1493 1503 1517 1531 1508 1505 1508 1495 1494 1494 1498 1503 1507 1511 1514 1518 1521 1524 1527 1530 1532 1533 1534 1535 1536 1537 1537 1537 1538 1537 1537 1536 1536 1536 1536 1536 1535 1534 1532 1531 1531 1530 1529 1528 1527 1527 1527
1478 1491 1515 1527 1536 1528 1493 1494 1495 1483 1484 1488 1494 1500 1504 1508 1512 1516 1519 1522 1525 1527 1529 1531 1531 1532 1533 1534 1535 1535 1535 1534 1534 1534 1534 1534 1534 1534 1533 1532 1530 1529 1528 1527 1527 1526 1525 1525 1524
1476 1481 1501 1512 1512 1504 1486 1489 1485 1478 1483 1487 1491 1497 1502 1506 1509 1513 1516 1519 1522 1524 1527 1528 1529 1530 1531 1532 1532 1532 1532 1532 1532 1532 1532 1531 1531 1531 1530 1529 1528 1527 1526 1525 1524 1523 1522 1522 1522
1475 1476 1469 1481 1486 1495 1491 1482 1483 1479 1482 1486 1489 1494 1499 1503 1506 1510 1513 1516 1519 1522 1524 1526 1527 1528 1529 1530 1530 1529 1529 1529 1529 1529 1529 1529 1529 1528 1528 1526 1525 1524 1523 1522 1521 1520 1519 1519 1518
1470 1470 1473 1482 1495 1505 1505 1495 1489 1484 1483 1484 1487 1492 1496 1499 1503 1506 1510 1513 1516 1519 1521 1523 1524 1526 1527 1527 1527 1528 1527 1526 1526 1526 1526 1525 1525 1524 1523 1522 1521 1520 1519 1518 1517 1516 1516 1515 1514
1476 1475 1475 1477 1480 1498 1514 1505 1475 1476 1478 1480 1484 1488 1492 1495 1498 1502 1506 1510 1513 1516 1518 1520 1522 1523 1524 1524 1525 1525 1525 1524 1524 1523 1523 1522 1521 1520 1519 1518 1517 1517 1516 1515 1514 1513 1512 1511 1510
1473 1474 1474 1487 1489 1483 1490 1496 1470 1471 1474 1477 1479 1484 1488 1492 1495 1499 1503 1507 1511 1514 1516 1517 1519 1520 1520 1521 1521 1521 1521 1521 1520 1520 1520 1519 1518 1517 1516 1515 1514 1513 1512 1511 1510 1509 1508 1507 1506